Time,TemperatureF,DewpointF,PressureIn,WindDirection,WindDirectionDegrees,WindSpeedMPH,WindSpeedGustMPH,Humidity,HourlyPrecipIn,Conditions,Clouds,dailyrainin,SoftwareType,DateUTC
2013-05-28 00:09:00,50.9,49.2,29.87,ESE,112,2.7,-999.0,94,-99.99,,,0.01,Acu-Link.com,2013-05-28 04:09:00,
2013-05-28 00:25:00,51.1,49.4,29.86,ESE,112,2.2,-999.0,94,-99.99,,,0.02,Acu-Link.com,2013-05-28 04:25:00,
2013-05-28 00:40:00,51.1,49.4,29.86,West,270,4.2,-999.0,94,-99.99,,,0.06,Acu-Link.com,2013-05-28 04:40:00,
2013-05-28 00:55:00,51.3,49.6,29.86,East,90,0.0,-999.0,94,-99.99,,,0.06,Acu-Link.com,2013-05-28 04:55:00,
2013-05-28 01:10:00,51.3,49.6,29.85,SE,135,0.0,-999.0,94,-99.99,,,0.06,Acu-Link.com,2013-05-28 05:10:00,
2013-05-28 01:26:00,51.3,49.6,29.84,ESE,112,2.2,-999.0,94,-99.99,,,0.06,Acu-Link.com,2013-05-28 05:26:00,
2013-05-28 01:41:00,51.4,49.7,29.84,ESE,112,1.7,-999.0,94,-99.99,,,0.06,Acu-Link.com,2013-05-28 05:41:00,
2013-05-28 01:56:00,51.4,49.7,29.84,East,90,1.1,-999.0,94,-99.99,,,0.06,Acu-Link.com,2013-05-28 05:56:00,
2013-05-28 02:11:00,51.4,49.7,29.83,SSE,157,3.2,-999.0,94,-99.99,,,0.06,Acu-Link.com,2013-05-28 06:11:00,
2013-05-28 02:26:00,51.4,49.7,29.83,ESE,112,3.7,-999.0,94,-99.99,,,0.06,Acu-Link.com,2013-05-28 06:26:00,
2013-05-28 02:41:00,51.6,49.9,29.83,East,90,3.7,-999.0,94,-99.99,,,0.06,Acu-Link.com,2013-05-28 06:41:00,
2013-05-28 02:57:00,51.6,49.9,29.82,ESE,112,2.7,-999.0,94,-99.99,,,0.06,Acu-Link.com,2013-05-28 06:57:00,
2013-05-28 03:12:00,51.6,49.9,29.82,East,90,0.0,-999.0,94,-99.99,,,0.06,Acu-Link.com,2013-05-28 07:12:00,
2013-05-28 03:27:00,51.8,50.1,29.80,South,180,2.7,-999.0,94,-99.99,,,0.07,Acu-Link.com,2013-05-28 07:27:00,
2013-05-28 03:43:00,51.8,50.1,29.80,SSE,157,3.2,-999.0,94,-99.99,,,0.07,Acu-Link.com,2013-05-28 07:43:00,
2013-05-28 03:58:00,52.0,50.3,29.81,ESE,112,1.7,-999.0,94,-99.99,,,0.07,Acu-Link.com,2013-05-28 07:58:00,
2013-05-28 04:14:00,52.0,50.3,29.80,SE,135,0.0,-999.0,94,-99.99,,,0.07,Acu-Link.com,2013-05-28 08:14:00,
2013-05-28 04:29:00,52.0,50.3,29.80,ESE,112,0.0,-999.0,94,-99.99,,,0.07,Acu-Link.com,2013-05-28 08:29:00,
2013-05-28 04:44:00,52.0,50.3,29.80,East,90,0.0,-999.0,94,-99.99,,,0.07,Acu-Link.com,2013-05-28 08:44:00,
2013-05-28 04:59:00,52.0,50.3,29.80,SE,135,0.0,-999.0,94,-99.99,,,0.07,Acu-Link.com,2013-05-28 08:59:00,
2013-05-28 05:15:00,52.2,50.8,29.80,West,270,0.0,-999.0,95,-99.99,,,0.07,Acu-Link.com,2013-05-28 09:15:00,
2013-05-28 05:30:00,52.2,50.8,29.80,East,90,0.0,-999.0,95,-99.99,,,0.07,Acu-Link.com,2013-05-28 09:30:00,
2013-05-28 05:45:00,52.2,50.8,29.80,ESE,112,0.0,-999.0,95,-99.99,,,0.07,Acu-Link.com,2013-05-28 09:45:00,
2013-05-28 06:01:00,52.3,50.9,29.80,East,90,0.0,-999.0,95,-99.99,,,0.07,Acu-Link.com,2013-05-28 10:01:00,
2013-05-28 06:16:00,52.5,51.1,29.80,SE,135,0.0,-999.0,95,-99.99,,,0.07,Acu-Link.com,2013-05-28 10:16:00,
2013-05-28 06:31:00,52.7,51.3,29.80,ESE,112,0.0,-999.0,95,-99.99,,,0.07,Acu-Link.com,2013-05-28 10:31:00,
2013-05-28 06:47:00,53.1,51.7,29.81,WSW,247,0.0,-999.0,95,-99.99,,,0.07,Acu-Link.com,2013-05-28 10:47:00,
2013-05-28 07:02:00,53.2,51.8,29.80,SE,135,1.7,-999.0,95,-99.99,,,0.07,Acu-Link.com,2013-05-28 11:02:00,
2013-05-28 07:17:00,53.6,52.2,29.82,SE,135,0.0,-999.0,95,-99.99,,,0.07,Acu-Link.com,2013-05-28 11:17:00,
2013-05-28 07:32:00,53.6,52.2,29.81,SSE,157,0.0,-999.0,95,-99.99,,,0.07,Acu-Link.com,2013-05-28 11:32:00,
2013-05-28 07:48:00,54.0,52.6,29.81,South,180,1.1,-999.0,95,-99.99,,,0.07,Acu-Link.com,2013-05-28 11:48:00,
2013-05-28 08:04:00,54.5,53.1,29.81,ESE,112,0.0,-999.0,95,-99.99,,,0.07,Acu-Link.com,2013-05-28 12:04:00,
2013-05-28 08:19:00,54.5,53.1,29.81,South,180,0.0,-999.0,95,-99.99,,,0.08,Acu-Link.com,2013-05-28 12:19:00,
2013-05-28 08:35:00,54.7,53.3,29.80,SSE,157,2.2,-999.0,95,-99.99,,,0.12,Acu-Link.com,2013-05-28 12:35:00,
2013-05-28 08:50:00,55.0,53.9,29.78,SE,135,2.7,-999.0,96,-99.99,,,0.22,Acu-Link.com,2013-05-28 12:50:00,
2013-05-28 09:05:00,55.6,54.5,29.77,ESE,112,2.2,-999.0,96,-99.99,,,0.24,Acu-Link.com,2013-05-28 13:05:00,
2013-05-28 09:21:00,55.8,54.7,29.77,SW,225,0.0,-999.0,96,-99.99,,,0.25,Acu-Link.com,2013-05-28 13:21:00,
2013-05-28 09:36:00,56.1,55.0,29.78,NNW,337,0.0,-999.0,96,-99.99,,,0.31,Acu-Link.com,2013-05-28 13:36:00,
2013-05-28 09:51:00,56.1,55.0,29.79,ESE,112,0.0,-999.0,96,-99.99,,,0.55,Acu-Link.com,2013-05-28 13:51:00,
2013-05-28 10:06:00,56.3,55.2,29.79,SSE,157,2.2,-999.0,96,-99.99,,,0.61,Acu-Link.com,2013-05-28 14:06:00,
2013-05-28 10:21:00,56.5,55.4,29.80,South,180,2.2,-999.0,96,-99.99,,,0.61,Acu-Link.com,2013-05-28 14:21:00,
2013-05-28 10:37:00,56.7,55.6,29.79,South,180,1.7,-999.0,96,-99.99,,,0.70,Acu-Link.com,2013-05-28 14:37:00,
2013-05-28 10:52:00,57.0,55.9,29.78,SE,135,0.0,-999.0,96,-99.99,,,0.70,Acu-Link.com,2013-05-28 14:52:00,
2013-05-28 11:07:00,57.2,56.1,29.78,South,180,1.7,-999.0,96,-99.99,,,0.71,Acu-Link.com,2013-05-28 15:07:00,
2013-05-28 11:22:00,57.4,56.3,29.78,South,180,0.0,-999.0,96,-99.99,,,0.71,Acu-Link.com,2013-05-28 15:22:00,
2013-05-28 11:38:00,57.6,56.5,29.77,ESE,112,2.2,-999.0,96,-99.99,,,0.71,Acu-Link.com,2013-05-28 15:38:00,
2013-05-28 11:53:00,59.0,57.9,29.76,ESE,112,2.7,-999.0,96,-99.99,,,0.71,Acu-Link.com,2013-05-28 15:53:00,
2013-05-28 12:08:00,61.9,59.9,29.75,SE,135,2.7,-999.0,93,-99.99,,,0.71,Acu-Link.com,2013-05-28 16:08:00,
2013-05-28 12:23:00,62.4,59.4,29.75,SSW,202,2.7,-999.0,90,-99.99,,,0.71,Acu-Link.com,2013-05-28 16:23:00,
2013-05-28 12:39:00,64.8,61.8,29.74,SSE,157,2.7,-999.0,90,-99.99,,,0.71,Acu-Link.com,2013-05-28 16:39:00,
2013-05-28 12:54:00,64.8,61.5,29.74,South,180,3.2,-999.0,89,-99.99,,,0.71,Acu-Link.com,2013-05-28 16:54:00,
2013-05-28 13:09:00,64.9,61.3,29.74,SSW,202,6.8,-999.0,88,-99.99,,,0.71,Acu-Link.com,2013-05-28 17:09:00,
2013-05-28 13:25:00,65.7,61.7,29.74,West,270,2.7,-999.0,87,-99.99,,,0.71,Acu-Link.com,2013-05-28 17:25:00,
2013-05-28 13:40:00,65.3,61.7,29.73,SSE,157,5.8,-999.0,88,-99.99,,,0.71,Acu-Link.com,2013-05-28 17:40:00,
2013-05-28 13:55:00,65.1,61.5,29.72,SSE,157,1.7,-999.0,88,-99.99,,,0.71,Acu-Link.com,2013-05-28 17:55:00,
2013-05-28 14:11:00,63.7,61.9,29.72,SSE,157,2.7,-999.0,94,-99.99,,,0.97,Acu-Link.com,2013-05-28 18:11:00,
2013-05-28 14:26:00,63.1,61.3,29.71,ESE,112,3.2,-999.0,94,-99.99,,,0.99,Acu-Link.com,2013-05-28 18:26:00,
2013-05-28 14:41:00,63.1,61.6,29.73,WSW,247,1.7,-999.0,95,-99.99,,,1.02,Acu-Link.com,2013-05-28 18:41:00,
2013-05-28 14:56:00,63.7,62.2,29.73,ESE,112,1.1,-999.0,95,-99.99,,,1.14,Acu-Link.com,2013-05-28 18:56:00,
2013-05-28 15:11:00,64.8,63.6,29.74,NNW,337,0.0,-999.0,96,-99.99,,,1.14,Acu-Link.com,2013-05-28 19:11:00,
2013-05-28 15:27:00,65.8,64.3,29.74,East,90,0.0,-999.0,95,-99.99,,,1.14,Acu-Link.com,2013-05-28 19:27:00,
2013-05-28 15:42:00,67.1,65.0,29.74,South,180,0.0,-999.0,93,-99.99,,,1.14,Acu-Link.com,2013-05-28 19:42:00,
2013-05-28 15:57:00,68.7,66.6,29.73,SE,135,0.0,-999.0,93,-99.99,,,1.14,Acu-Link.com,2013-05-28 19:57:00,
2013-05-28 16:13:00,70.0,66.6,29.72,South,180,2.7,-999.0,89,-99.99,,,1.14,Acu-Link.com,2013-05-28 20:13:00,
2013-05-28 16:28:00,70.5,66.8,29.72,SE,135,1.7,-999.0,88,-99.99,,,1.14,Acu-Link.com,2013-05-28 20:28:00,
2013-05-28 16:43:00,72.3,67.9,29.70,SW,225,4.2,-999.0,86,-99.99,,,1.14,Acu-Link.com,2013-05-28 20:43:00,
2013-05-28 16:58:00,73.8,68.3,29.70,SE,135,3.7,-999.0,83,-99.99,,,1.14,Acu-Link.com,2013-05-28 20:58:00,
2013-05-28 17:14:00,74.7,69.2,29.70,WSW,247,3.7,-999.0,83,-99.99,,,1.14,Acu-Link.com,2013-05-28 21:14:00,
2013-05-28 17:30:00,73.0,68.6,29.70,SSW,202,2.2,-999.0,86,-99.99,,,1.14,Acu-Link.com,2013-05-28 21:30:00,
2013-05-28 17:45:00,71.8,68.0,29.70,ESE,112,0.0,-999.0,88,-99.99,,,1.14,Acu-Link.com,2013-05-28 21:45:00,
2013-05-28 18:00:00,70.5,67.7,29.69,ESE,112,2.2,-999.0,91,-99.99,,,1.18,Acu-Link.com,2013-05-28 22:00:00,
2013-05-28 18:16:00,69.4,67.3,29.70,South,180,0.0,-999.0,93,-99.99,,,1.18,Acu-Link.com,2013-05-28 22:16:00,
2013-05-28 18:32:00,69.4,67.3,29.69,SE,135,1.7,-999.0,93,-99.99,,,1.18,Acu-Link.com,2013-05-28 22:32:00,
2013-05-28 18:47:00,69.8,67.7,29.68,SW,225,4.2,-999.0,93,-99.99,,,1.18,Acu-Link.com,2013-05-28 22:47:00,
2013-05-28 19:02:00,70.3,68.2,29.68,South,180,1.7,-999.0,93,-99.99,,,1.18,Acu-Link.com,2013-05-28 23:02:00,
2013-05-28 19:17:00,70.2,68.1,29.68,South,180,0.0,-999.0,93,-99.99,,,1.18,Acu-Link.com,2013-05-28 23:17:00,
2013-05-28 19:33:00,70.0,67.9,29.68,South,180,1.1,-999.0,93,-99.99,,,1.18,Acu-Link.com,2013-05-28 23:33:00,
2013-05-28 19:48:00,70.2,68.1,29.68,SSW,202,0.0,-999.0,93,-99.99,,,1.18,Acu-Link.com,2013-05-28 23:48:00,
2013-05-28 20:04:00,70.0,68.2,29.66,South,180,0.0,-999.0,94,-99.99,,,1.18,Acu-Link.com,2013-05-29 00:04:00,
2013-05-28 20:20:00,69.8,68.0,29.67,SW,225,2.7,-999.0,94,-99.99,,,1.18,Acu-Link.com,2013-05-29 00:20:00,
2013-05-28 20:35:00,69.8,68.0,29.66,SW,225,4.7,-999.0,94,-99.99,,,1.18,Acu-Link.com,2013-05-29 00:35:00,
2013-05-28 20:52:00,69.8,68.0,29.65,South,180,4.2,-999.0,94,-99.99,,,1.18,Acu-Link.com,2013-05-29 00:52:00,
2013-05-28 21:07:00,70.3,68.2,29.66,ESE,112,1.7,-999.0,93,-99.99,,,1.18,Acu-Link.com,2013-05-29 01:07:00,
2013-05-28 21:24:00,70.2,68.1,29.66,SE,135,0.0,-999.0,93,-99.99,,,1.18,Acu-Link.com,2013-05-29 01:24:00,
2013-05-28 21:39:00,70.3,67.9,29.65,SW,225,3.7,-999.0,92,-99.99,,,1.18,Acu-Link.com,2013-05-29 01:39:00,
2013-05-28 21:55:00,70.3,67.5,29.66,SSW,202,3.2,-999.0,91,-99.99,,,1.18,Acu-Link.com,2013-05-29 01:55:00,
2013-05-28 22:11:00,70.2,67.8,29.67,SSW,202,2.7,-999.0,92,-99.99,,,1.18,Acu-Link.com,2013-05-29 02:11:00,
2013-05-28 22:26:00,70.0,67.2,29.67,West,270,0.0,-999.0,91,-99.99,,,1.18,Acu-Link.com,2013-05-29 02:26:00,
2013-05-28 22:42:00,69.8,67.0,29.68,SW,225,3.7,-999.0,91,-99.99,,,1.18,Acu-Link.com,2013-05-29 02:42:00,
2013-05-28 22:57:00,69.6,67.5,29.67,South,180,1.7,-999.0,93,-99.99,,,1.20,Acu-Link.com,2013-05-29 02:57:00,
2013-05-28 23:13:00,69.1,67.3,29.67,West,270,0.0,-999.0,94,-99.99,,,1.38,Acu-Link.com,2013-05-29 03:13:00,
2013-05-28 23:28:00,68.9,67.4,29.67,WNW,292,0.0,-999.0,95,-99.99,,,1.46,Acu-Link.com,2013-05-29 03:28:00,
2013-05-28 23:43:00,68.7,67.2,29.68,East,90,1.1,-999.0,95,-99.99,,,1.46,Acu-Link.com,2013-05-29 03:43:00,
2013-05-28 23:58:00,68.7,67.5,29.67,West,270,0.0,-999.0,96,-99.99,,,1.63,Acu-Link.com,2013-05-29 03:58:00,